Presure
122 116 126 114 113 126 132 137 129 124 121 114 115 124 123 115 119 118 112 92 124 122 108 99 108 110 112 103 110 111 117 123 128 134 127 145 153 124 115 112 101 99 106 101 105
122 121 194 125 129 130 185 120 121 159 132 131 135 124 124 120 114 114 111 97 107 101 109 97 112 104 109 110 105 107 116 122 118 123 137 118 126 103 115 116 112 108 106 104 107
209 207 222 197 196 188 117 131 118 169 163 131 124 134 130 128 147 127 123 120 127 106 125 120 107 111 106 110 111 116 110 116 121 123 121 140 146 130 152 109 116 112 112 108 103
212 211 213 100 203 173 124 193 133 176 93 136 150 145 166 151 164 150 130 116 101 124 115 124 98 106 114 106 112 103 118 113 118 119 122 119 138 110 140 140 104 121 125 120 93
230 216 207 209 209 212 170 197 190 184 122 127 181 139 178 144 117 125 126 160 124 120 101 120 117 106 102 112 112 109 102 108 119 114 125 113 115 137 113 154 121 110 107 115 122
222 230 221 221 207 211 221 211 193 200 192 202 198 179 162 152 141 121 142 122 113 132 108 110 125 110 102 97 102 121 113 109 101 105 119 119 116 110 133 108 140 121 144 113 112
228 221 227 196 228 218 214 216 213 136 149 196 221 174 125 191 157 186 138 158 119 139 144 136 119 123 112 124 104 109 114 111 105 108 107 117 118 113 105 123 119 141 170 102 106
221 220 227 229 225 231 231 225 222 218 207 201 205 144 129 180 175 177 179 115 188 125 140 168 147 129 116 124 111 122 113 115 108 114 110 112 114 124 120 109 117 141 119 172 101
222 223 229 228 222 227 235 235 234 235 226 218 211 210 209 221 215 202 196 197 133 186 127 167 171 137 141 111 120 118 123 110 96 115 114 118 117 122 128 121 113 115 122 108 112
239 208 212 218 221 221 224 227 228 230 239 246 246 248 236 220 221 213 218 226 191 188 210 170 190 190 132 136 167 145 107 100 99 127 117 117 116 84 115 123 120 114 105 96 120
231 232 240 252 249 246 257 259 259 268 223 222 224 228 241 242 250 264 223 225 216 209 206 194 126 203 184 147 133 131 110 114 105 117 132 117 109 117 121 125 106 125 119 117 90
216 217 219 225 228 230 235 236 237 235 239 246 250 257 259 257 262 247 248 263 249 236 225 231 161 162 123 172 170 150 134 115 112 82 130 111 113 67 121 109 114 104 121 111 121
207 213 212 214 215 215 217 229 228 235 225 226 230 233 237 240 254 277 284 304 292 266 276 241 236 227 107 131 145 137 157 122 131 101 96 131 118 117 95 114 114 114 110 118 113
200 200 204 205 205 209 210 207 213 210 214 217 219 222 225 234 243 266 276 401 547 620 476 406 279 241 234 238 78 174 170 150 138 149 134 126 117 123 118 120 124 125 92 90 80
211 206 202 198 201 202 205 199 203 205 206 209 219 216 215 236 241 287 353 505 484 558 575 534 439 335 281 244 168 154 196 145 194 142 142 147 99 91 66 130 70 110 98 111 110
202 226 228 209 203 217 216 221 226 220 212 206 202 205 219 226 267 302 331 492 465 475 522 594 467 429 351 297 271 239 166 185 192 167 90 125 135 132 112 108 129 121 118 124 114
205 202 201 204 205 200 197 220 205 210 217 214 215 230 228 226 290 295 317 380 453 466 439 484 465 442 419 425 305 259 232 223 225 173 146 202 157 125 134 115 110 127 113 130 70
201 199 194 196 198 201 211 199 209 213 218 214 225 217 234 237 280 280 307 331 433 417 404 428 460 412 426 434 388 287 212 72 73 208 158 180 60 64 104 133 113 121 129 112 88
193 193 192 197 203 203 199 201 204 207 213 217 217 213 239 236 269 266 291 308 340 413 411 399 432 449 443 374 381 460 244 259 250 236 226 224 159 188 126 131 139 140 123 120 120
185 188 194 197 200 197 194 195 193 194 200 212 211 206 217 265 265 257 282 299 313 372 405 403 409 403 432 420 380 364 333 317 226 182 254 244 223 107 150 141 100 141 118 147 107
193 203 211 213 207 190 196 197 201 198 199 201 205 208 204 264 261 262 276 279 299 327 382 389 404 384 394 426 419 380 382 353 287 260 252 128 66 223 189 149 200 134 81 148 140
186 185 196 207 212 215 215 211 215 227 236 226 208 207 216 250 259 258 264 268 276 304 328 376 403 391 410 399 409 392 350 450 323 358 254 168 205 241 244 208 202 201 129 135 82
201 185 186 190 195 215 210 210 214 218 227 216 199 213 245 252 248 248 254 261 104 279 301 337 362 370 370 370 377 387 346 330 339 401 124 170 250 243 239 133 222 127 141 100 144
183 198 194 193 190 211 214 214 213 215 223 218 208 240 233 233 239 193 243 251 248 259 279 296 366 365 409 401 351 365 362 326 317 329 353 289 267 243 149 238 244 247 166 153 203
195 199 198 207 193 193 201 200 204 224 216 210 210 227 221 219 227 232 233 237 251 257 263 276 305 347 362 405 380 351 357 382 327 347 323 335 323 280 153 235 244 239 245 255 201
204 192 198 210 189 195 200 208 211 214 217 206 207 222 213 224 233 221 231 237 242 251 265 76 281 317 372 362 371 438 357 352 357 372 333 345 323 317 275 73 244 243 193 243 247
196 192 198 208 189 189 201 202 207 214 208 200 225 209 216 206 227 232 226 236 246 254 258 270 273 280 319 369 368 361 364 389 343 346 349 109 271 336 258 234 133 185 67 243 247
Wind_Speed
74 69 79 65 63 76 79 81 75 69 64 57 59 63 62 58 56 55 57 49 58 54 53 46 50 48 49 45 47 42 44 40 37 34 32 38 34 34 26 29 17 10 16 13 12
78 76 104 81 84 83 95 71 69 90 79 77 77 69 66 63 59 57 60 56 61 52 56 49 55 51 52 51 47 46 48 46 35 35 34 28 35 31 30 28 31 26 19 16 18
86 91 97 104 102 104 73 84 72 94 91 80 74 75 76 72 76 72 68 65 67 58 61 59 57 57 57 54 54 54 53 45 42 37 44 39 37 38 38 31 29 34 31 23 19
86 89 91 57 100 91 81 104 84 101 55 85 86 84 91 82 85 81 76 67 61 67 64 64 53 58 62 58 55 51 60 52 46 43 44 38 37 43 39 40 29 36 36 32 20
79 85 89 92 94 97 94 106 105 97 79 82 102 81 97 84 70 81 76 84 74 70 59 68 67 61 58 62 58 61 52 52 54 48 50 42 42 43 41 44 42 33 32 34 34
77 80 85 88 91 93 97 103 102 105 107 107 107 102 100 93 87 80 88 78 70 82 68 67 72 64 65 53 54 67 63 59 46 49 56 50 46 45 47 42 44 40 40 33 36
71 75 77 86 86 92 94 98 102 93 93 106 109 103 84 113 100 108 91 95 77 87 86 83 73 71 73 70 65 66 65 64 61 63 56 57 49 52 43 48 45 45 45 34 35
65 68 71 74 79 82 88 94 97 101 105 106 106 95 91 108 104 110 109 79 111 86 90 97 85 78 76 73 71 66 64 57 77 70 69 60 59 59 52 47 48 49 43 45 34
58 61 65 69 72 74 77 81 86 91 97 102 105 108 110 115 117 117 117 116 95 112 89 102 97 89 84 72 74 70 62 71 69 75 78 65 68 63 57 47 50 52 46 45 41
44 58 60 63 66 69 72 75 77 79 82 85 91 96 105 112 116 116 117 118 117 113 120 106 115 111 83 82 86 85 75 61 50 77 75 67 67 41 55 52 50 53 49 45 51
35 41 41 38 44 51 46 49 53 51 79 82 85 90 92 98 103 108 120 120 120 120 121 122 82 115 108 96 96 93 77 81 74 90 78 71 66 75 70 62 50 51 55 57 44
39 42 43 43 45 47 47 49 52 56 57 57 60 62 71 80 88 102 109 112 120 123 124 128 104 107 79 97 106 99 90 80 84 51 86 71 69 30 77 61 60 52 55 60 60
41 42 45 46 49 51 53 50 53 52 60 64 67 72 76 81 81 78 84 86 100 115 120 129 128 130 68 62 101 97 94 80 81 48 24 82 74 76 54 72 67 64 61 61 63
41 42 44 46 47 51 52 54 56 59 62 66 71 74 77 77 81 79 79 58 26 23 60 86 122 129 131 132 23 95 88 106 102 111 93 76 67 82 81 80 81 74 54 54 33
39 41 45 47 47 51 55 54 59 62 63 70 69 74 75 69 72 70 58 34 33 24 24 47 70 110 126 129 111 99 120 111 116 109 104 101 47 60 21 87 9 74 66 74 65
32 26 29 40 46 43 43 41 41 50 60 67 71 70 70 67 60 59 54 33 29 25 19 29 53 69 107 119 131 129 122 121 122 117 13 76 82 88 80 86 85 86 87 87 64
29 31 34 36 38 45 49 38 49 49 48 55 59 56 62 62 56 55 50 49 26 19 18 18 33 50 63 76 116 132 138 132 135 122 76 111 100 86 99 98 90 90 78 95 23
30 33 40 41 42 41 39 46 44 44 48 53 51 56 53 54 56 55 48 47 32 18 17 20 17 42 46 47 85 123 107 28 28 119 108 114 8 5 36 111 101 102 85 73 55
36 38 40 39 38 38 41 42 43 46 48 52 49 53 54 52 55 53 51 47 47 28 18 17 17 31 42 68 70 42 116 129 137 141 132 128 104 110 115 115 117 114 98 94 88
42 43 40 41 41 42 42 44 47 49 49 49 47 50 51 55 54 50 51 50 48 43 29 17 12 20 35 53 72 83 103 110 117 86 139 133 126 63 100 119 56 117 73 108 63
41 38 39 43 44 45 43 44 46 49 50 45 49 50 48 52 52 53 52 46 50 51 37 30 17 17 26 34 45 70 82 99 125 134 136 46 9 126 124 121 126 114 29 111 105
43 44 40 41 43 44 43 42 43 44 45 46 50 49 48 49 50 50 50 48 48 51 49 34 26 13 19 22 31 50 67 35 108 96 131 75 101 125 133 126 126 125 111 118 13
41 46 46 46 46 47 46 44 48 46 47 45 47 48 46 46 47 49 50 49 8 48 48 44 31 23 14 18 32 44 56 84 68 46 62 87 126 127 127 61 133 107 86 36 98
46 42 39 46 49 47 49 46 48 51 49 46 48 45 44 43 44 32 49 49 41 44 49 47 32 25 21 20 34 38 55 76 88 89 76 124 129 128 66 134 135 137 96 90 130
51 48 40 35 48 48 45 45 45 48 49 45 48 43 44 44 45 43 44 49 49 48 45 46 45 34 24 25 30 44 46 43 50 76 96 96 108 125 60 128 130 133 132 132 120
53 51 44 36 44 49 48 49 49 48 49 45 45 44 46 44 46 44 46 49 49 50 49 14 44 41 25 25 23 33 46 52 52 51 82 83 101 111 122 9 126 130 94 130 133
59 54 52 45 41 49 49 51 48 47 47 45 44 47 46 45 48 49 46 49 55 54 51 45 39 42 36 31 27 17 24 39 56 62 67 28 67 94 96 91 40 93 19 135 138
Wind_Direction
247 247 247 250 248 246 246 243 243 244 244 244 244 244 242 241 239 238 236 249 241 238 246 253 249 247 249 263 258 256 254 249 247 244 247 247 245 246 251 256 268 241 262 270 273
249 249 229 246 244 244 234 248 246 241 242 242 242 244 243 241 239 238 238 248 244 250 244 254 245 255 250 251 261 261 256 252 246 246 244 243 248 260 253 249 259 271 265 265 272
229 230 225 232 233 234 250 244 243 240 243 241 243 243 244 242 242 240 240 239 240 245 239 237 250 244 251 249 251 252 260 257 252 246 246 248 244 248 243 253 251 263 267 269 266
229 231 232 241 234 236 246 236 243 240 247 241 244 244 246 244 248 243 240 237 241 240 238 238 250 246 244 251 249 260 253 258 254 251 250 246 249 258 245 248 252 249 254 256 256
230 232 234 235 236 234 239 238 240 236 248 246 243 248 242 246 241 238 241 246 239 238 246 237 239 246 253 246 246 250 259 261 255 253 254 246 247 249 253 246 251 252 257 257 257
235 234 234 235 238 239 235 235 239 242 244 241 242 241 245 244 243 243 239 241 242 237 241 241 237 241 249 253 255 240 251 256 263 259 256 248 245 248 251 254 246 251 246 255 262
239 240 240 238 239 239 239 238 240 243 240 246 242 246 246 246 247 245 239 249 243 238 237 237 236 235 241 237 252 251 247 252 260 257 258 252 248 243 255 251 249 249 237 250 259
241 242 243 244 244 244 243 243 242 241 244 246 246 247 246 246 244 250 249 242 249 242 241 247 238 236 236 237 243 240 247 243 252 249 255 254 251 248 243 252 253 250 252 238 254
244 245 247 247 247 247 248 248 248 248 247 246 247 247 248 248 247 247 246 246 241 250 241 246 247 234 237 241 236 237 235 240 252 242 248 247 253 252 248 240 251 257 251 257 255
245 244 245 248 249 250 252 252 252 252 253 252 251 250 249 249 249 249 249 245 247 245 244 248 249 248 234 235 247 238 239 243 253 239 244 246 253 257 253 246 241 251 257 248 258
244 246 246 247 249 251 252 254 255 255 253 253 252 253 252 252 253 252 249 247 246 246 247 248 247 249 246 233 229 231 241 237 254 246 235 241 253 256 254 249 244 240 248 256 246
244 245 247 249 250 250 251 253 255 256 258 258 257 257 258 258 258 254 253 253 249 246 246 244 241 244 240 249 241 236 229 239 248 247 236 247 248 261 252 256 252 246 239 251 254
254 254 257 256 257 259 259 256 256 257 258 259 260 260 260 261 262 263 262 262 256 250 247 244 244 241 246 248 237 238 234 237 244 249 233 228 239 248 254 259 252 247 242 244 248
260 262 263 264 267 266 266 268 265 266 263 263 265 265 265 266 269 272 271 287 300 285 252 245 243 243 242 240 230 245 246 235 233 238 244 241 236 234 247 250 246 248 254 256 238
254 257 260 265 264 265 265 269 268 268 266 267 267 269 271 275 279 290 306 318 305 299 258 245 241 237 238 241 241 234 243 235 242 236 236 234 262 260 257 240 295 254 251 253 246
261 259 259 260 261 260 263 264 267 265 264 268 271 273 277 280 295 308 313 321 315 308 287 270 240 238 237 236 236 238 239 239 241 239 171 238 233 231 253 262 243 240 248 246 257
257 256 256 256 259 259 260 274 263 265 268 269 273 283 285 286 317 317 323 335 325 313 318 276 240 238 234 236 231 236 239 238 239 239 244 242 237 233 235 249 259 243 259 244 235
259 258 255 257 259 265 273 268 276 277 279 274 283 283 296 299 318 320 331 344 339 314 314 311 251 232 230 237 230 229 235 256 253 240 237 238 193 297 236 235 250 250 242 259 251
261 262 262 267 271 274 272 276 280 282 286 287 288 289 305 305 319 320 334 339 354 335 316 302 267 229 210 226 231 238 233 233 234 237 236 234 234 234 240 241 237 237 250 253 258
262 265 269 269 269 269 271 276 277 280 284 293 296 291 302 321 321 322 336 344 351 349 328 311 285 247 229 217 222 228 227 231 235 233 236 234 235 248 239 242 244 242 240 239 249
269 277 282 282 279 268 272 275 279 281 286 294 296 299 298 323 325 330 338 344 352 357 337 328 304 249 247 234 234 230 228 230 233 235 236 239 250 234 235 239 235 246 235 240 243
264 267 280 290 291 292 291 289 291 296 296 297 298 300 307 326 330 335 341 345 347 355 360 333 312 294 256 239 245 235 235 236 235 232 236 234 238 236 234 232 234 235 249 245 303
273 266 272 279 285 298 293 296 297 297 300 299 297 306 325 332 335 335 340 344 311 349 356 355 337 332 275 237 230 216 227 231 231 242 235 238 235 234 236 237 235 236 236 255 246
266 272 273 281 280 298 297 300 299 302 303 304 303 322 324 327 332 291 336 338 338 344 349 354 339 325 274 249 230 238 221 231 232 233 235 233 234 233 232 234 237 236 245 242 238
273 275 272 277 281 284 290 292 295 304 300 304 306 316 316 318 322 330 330 331 338 339 344 348 353 349 321 271 234 238 244 239 236 235 238 237 237 234 237 236 237 239 238 238 237
275 273 275 279 278 285 289 296 298 299 300 301 304 312 312 319 326 321 329 332 331 332 341 263 349 355 325 307 292 265 247 248 236 232 238 239 238 238 235 231 239 240 239 239 238
277 274 277 278 268 277 287 290 294 296 297 297 309 307 311 313 324 325 322 329 334 335 335 339 345 345 343 313 299 310 270 252 244 244 237 213 233 235 235 234 226 235 206 239 240